CST,Max TemperatureF,Mean TemperatureF,Min TemperatureF,Max Dew PointF,MeanDew PointF,Min DewpointF,Max Humidity, Mean Humidity, Min Humidity, Max Sea Level PressureIn, Mean Sea Level PressureIn, Min Sea Level PressureIn, Max VisibilityMiles, Mean VisibilityMiles, Min VisibilityMiles, Max Wind SpeedMPH, Mean Wind SpeedMPH, Max Gust SpeedMPH,PrecipitationIn, CloudCover, Events, WindDirDegrees
2014-2-1,24,16,8,19,12,1,89,75,60,30.31,30.06,29.90,10,8,2,24,8,31,0.00,4,Snow,345
2014-2-2,30,13,-4,11,3,-9,83,67,42,30.37,30.29,30.21,10,10,10,13,5,16,0.00,0,,222
2014-2-3,32,18,3,14,8,-2,81,62,40,30.23,30.20,30.16,10,10,10,12,6,16,0.00,5,,162
2014-2-4,23,13,3,19,10,-3,84,78,61,30.41,30.27,30.22,10,5,0,28,10,33,0.00,8,Snow,46
2014-2-5,9,4,-2,-2,-6,-12,78,66,50,30.64,30.57,30.42,10,8,2,28,19,36,0.00,4,Snow,330
2014-2-6,9,1,-7,-3,-9,-16,70,63,52,30.63,30.51,30.38,10,10,10,14,8,16,0.00,2,,277
2014-2-7,16,8,1,6,0,-7,79,65,47,30.37,30.24,30.12,10,10,10,16,8,21,0.00,6,Snow,196
2014-2-8,25,18,11,17,12,7,85,75,56,30.22,30.07,30.00,10,9,4,14,9,,0.00,6,Snow,282
2014-2-9,19,10,1,14,2,-4,81,69,59,30.44,30.34,30.22,10,10,7,16,10,18,0.00,6,Snow,347
2014-2-10,11,2,-7,-1,-5,-13,81,68,52,30.50,30.46,30.41,10,10,10,8,3,,0.00,3,,349
2014-2-11,22,12,2,10,4,-4,74,65,53,30.45,30.26,30.06,10,10,10,20,9,22,0.00,6,,169
2014-2-12,26,21,16,23,17,9,89,78,62,30.11,30.01,29.80,10,9,2,24,10,30,0.00,6,Snow,198
2014-2-13,54,40,26,30,24,19,81,61,29,29.81,29.73,29.68,10,10,10,20,10,25,0.00,2,,301
2014-2-14,30,22,15,20,14,9,82,68,43,30.08,29.93,29.62,10,10,1,20,11,25,0.00,4,Snow,2
2014-2-15,59,38,18,30,21,12,82,61,21,30.07,29.91,29.76,10,10,7,34,12,50,0.00,3,,216
2014-2-16,36,29,22,26,23,18,88,78,64,30.15,30.02,29.83,10,9,5,23,10,30,0.00,5,,108
2014-2-17,54,42,29,32,23,14,92,57,21,29.93,29.87,29.78,10,9,1,30,13,36,0.02,2,Snow,254
2014-2-18,66,50,34,25,20,15,66,36,14,29.95,29.74,29.63,10,10,10,29,13,38,0.00,0,,266
2014-2-19,54,38,21,29,21,11,87,55,19,29.95,29.83,29.57,10,10,10,23,8,28,0.00,1,,186
2014-2-20,41,34,25,31,24,15,92,68,56,29.77,29.63,29.48,10,9,0,32,15,46,0.02,6,Snow,318
2014-2-21,48,36,23,32,21,14,86,63,36,29.88,29.80,29.74,10,10,10,23,11,31,0.00,1,,274
2014-2-22,38,32,26,27,21,16,86,66,43,30.20,30.01,29.87,10,10,10,16,7,20,0.00,4,,13
2014-2-23,32,26,21,17,9,4,71,51,34,30.37,30.31,30.21,10,10,10,15,9,18,0.00,4,,356
2014-2-24,25,22,20,20,17,12,89,78,62,30.35,30.29,30.19,10,8,2,13,5,16,0.00,8,Snow,87
2014-2-25,21,13,5,18,3,-3,87,68,54,30.49,30.42,30.32,10,10,4,21,12,26,0.00,5,Snow,341
2014-2-26,35,17,-1,15,6,-6,81,60,40,30.48,30.14,29.90,10,10,10,24,10,32,0.00,0,,267
2014-2-27,21,12,4,10,-6,-15,72,45,20,30.19,30.05,29.85,10,10,10,16,10,20,0.00,2,,71
2014-2-28,39,26,13,22,10,0,85,59,31,30.15,29.88,29.75,10,9,1,23,12,29,0.00,5,Snow,58